Location: �couen
(49.0206°N, 2.3831°E)
Time: 05:57:41
(UTC+00:00)

Cosmos 1758 - Pass Details

Date: 01 June 2022
Orbit: 538 x 557 km, 82.5° (Epoch: 03 July)

Event Time Altitude Azimuth Distance (km) Brightness Sun altitude
Rises 21:46:38 0° 2° (N) 2,719 7.9 -13.8°
Reaches altitude 10° 21:49:18 10° 21° (NNE) 1,824 6.6 -14.0°
Maximum altitude 21:52:14 19° 68° (ENE) 1,329 5.2 -14.3°
Enters shadow 21:54:17 14° 104° (ESE) 1,585 5.3 -14.4°
